East Milton, MA

10:11 AM EST on January 22, 2018 (GMT -0500)
East Milton

Weather History for KMQE - July, 2013

Change the Weather History Date:

Monday, July 22, 2013

  Actual Average (KOWD) Record (KOWD)
Temperature  
Mean Temperature 73 °F -  
Max Temperature 81 °F 79 °F 100 °F (2011)
Min Temperature 68 °F 57 °F 51 °F (2012)
Cooling Degree Days 8    
Growing Degree Days 23 (Base 50)    
Moisture  
Dew Point 66 °F    
Average Humidity 84    
Maximum Humidity 93    
Minimum Humidity 66    
Precipitation  
Precipitation 0.00 in - - ()
Sea Level Pressure  
Sea Level Pressure 29.98 in    
Wind  
Wind Speed 8 mph (ESE)    
Max Wind Speed 14 mph    
Max Gust Speed 18 mph    
Averages and records for this station are not official NWS values.
T = Trace of Precipitation, MM = Missing Value Source: NWS Daily Summary

Daily Weather History Graph

Daily Weather History Graph

Search for Another Location

Airport or City:

Trip Planner

Search our weather history database for the weather conditions in past years. The results will help you decide how hot, cold, wet, or windy it might be!

Date:

Astronomy

Jul. 22, 2013 Rise Set
Actual Time 5:27 AM EDT 8:13 PM EDT
Civil Twilight 4:55 AM EDT 8:46 PM EDT
Nautical Twilight 4:13 AM EDT 9:27 PM EDT
Astronomical Twilight 3:26 AM EDT 10:14 PM EDT
Moon 7:55 PM EDT 5:21 AM EDT
Length of Visible Light 15h 51m
Length of Day
14h 45m
Full, 100% of the Moon is Illuminated
Jul 22
Full
Jul 22
Full
Jul 29
Last Quarter
Aug 6
New
Aug 14
First Quarter

Hourly Weather History & Observations

Time (EDT) Temp. Dew Point Humidity Pressure Visibility Wind Dir Wind Speed Gust Speed Precip Events Conditions
12:54 AM 69.1 °F 66.0 °F 90% 30.02 in - South 6.9 mph - N/A   Unknown
1:54 AM 69.1 °F 64.9 °F 87% 30.01 in - South 8.1 mph - N/A   Unknown
2:54 AM 68.0 °F 64.9 °F 90% 30.01 in - South 5.8 mph - N/A   Unknown
3:54 AM 68.0 °F 66.0 °F 93% 30.00 in - SSE 8.1 mph - N/A   Unknown
4:54 AM 68.0 °F 64.9 °F 90% 30.01 in - South 9.2 mph - N/A   Unknown
5:54 AM 68.0 °F 64.0 °F 87% 30.01 in - SSW 3.5 mph - N/A   Unknown
6:54 AM 71.1 °F 64.9 °F 81% 30.02 in - Calm Calm - N/A   Unknown
7:54 AM 73.0 °F 66.0 °F 79% 30.03 in - Calm Calm - N/A   Unknown
12:54 PM 77.0 °F 66.9 °F 71% 30.01 in - NE 10.4 mph 16.1 mph N/A   Unknown
1:54 PM 78.1 °F 66.0 °F 66% 30.00 in - East 11.5 mph - N/A   Unknown
2:54 PM 78.1 °F 66.0 °F 66% 29.99 in - ENE 10.4 mph - N/A   Unknown
3:54 PM 75.0 °F 66.0 °F 73% 29.98 in - NE 11.5 mph - N/A   Unknown
4:54 PM 73.9 °F 66.0 °F 76% 29.97 in - ENE 12.7 mph 18.4 mph N/A   Unknown
5:54 PM 71.1 °F 66.0 °F 84% 29.96 in - ENE 12.7 mph - N/A   Unknown
6:54 PM 71.1 °F 66.0 °F 84% 29.95 in - East 13.8 mph - N/A   Unknown
7:54 PM 70.0 °F 66.0 °F 87% 29.95 in - East 9.2 mph - N/A   Unknown
8:54 PM 69.1 °F 66.0 °F 90% 29.94 in - East 8.1 mph - N/A   Unknown
9:54 PM 68.0 °F 66.0 °F 93% 29.94 in - East 5.8 mph - N/A   Unknown
10:54 PM 68.0 °F 66.0 °F 93% 29.93 in - ESE 5.8 mph - N/A   Unknown
11:54 PM 68.0 °F 66.0 °F 93% 29.91 in - East 4.6 mph - N/A   Unknown